Voltar ao catálogo

HULIANWANG DIGUI-110

AtivoComunicaçõesLEO
NORAD 66920·PAYLOAD·🇨🇳 China

Lançado Dec 6, 2025 de Wenchang Space Launch Site

Loading…

Próximas Passagens (próximas 24 horas)

TLE

AtualizadoSource: Space-Track

Época: Sep 14, 2026, 19:45 UTC

1 66920U 25285F   26257.82325827 -.00000089  00000-0  74608-4 0  9991
2 66920  50.0100 184.5006 0000170 267.0253  93.0600 13.29329348 37987

Acompanhe HULIANWANG DIGUI-110 em tempo real com AllMySat

Download on the App Store